This is the latest recevied weather packets stored in our database for station/object K2RMB. If no packets are shown the sender has not sent any weather packets the latest 10 day(s).
| Time | Temp. | Humidity | Pressure | Rain* | Wind** | Luminosity | Snow |
|---|---|---|---|---|---|---|---|
| 1777054822 | 10.56° C | 34% | 1011.5 hPa | 0 mm | - | 761 W/m² | - |
| 1777054519 | 10.56° C | 37% | 1011.1 hPa | 0 mm | - | 773 W/m² | - |
| 1777054217 | 10.56° C | 33% | 1011.1 hPa | 0 mm | - | 777 W/m² | - |
| 1777053915 | 11.11° C | 34% | 1011.1 hPa | 0 mm | - | 785 W/m² | - |
| 1777053610 | 10.56° C | 35% | 1011.1 hPa | 0 mm | - | 790 W/m² | - |
| 1777053309 | 10.56° C | 36% | 1011.1 hPa | 0 mm | - | 800 W/m² | - |
| 1777053005 | 10° C | 34% | 1011.8 hPa | 0 mm | - | 806 W/m² | - |
| 1777052701 | 10° C | 35% | 1011.5 hPa | 0 mm | - | 813 W/m² | - |
| 1777052401 | 10° C | 35% | 1011.5 hPa | 0 mm | - | 820 W/m² | - |
| 1777052099 | 10° C | 38% | 1011.5 hPa | 0 mm | - | 819 W/m² | - |
| 1777051796 | 10° C | 37% | 1011.5 hPa | 0 mm | - | 823 W/m² | - |
| 1777051492 | 10.56° C | 36% | 1011.5 hPa | 0 mm | - | 827 W/m² | - |
| 1777051187 | 10.56° C | 40% | 1011.5 hPa | 0 mm | - | 831 W/m² | - |
| 1777050883 | 9.44° C | 45% | 1011.8 hPa | 0 mm | - | 831 W/m² | - |
| 1777050580 | 10° C | 40% | 1011.5 hPa | 0 mm | - | 834 W/m² | - |
| 1777050278 | 10° C | 40% | 1011.8 hPa | 0 mm | - | 838 W/m² | - |
| 1777049974 | 10° C | 42% | 1011.8 hPa | 0 mm | - | 842 W/m² | - |
| 1777049673 | 9.44° C | 41% | 1011.8 hPa | 0 mm | - | 846 W/m² | - |
| 1777049372 | 8.89° C | 41% | 1011.8 hPa | 0 mm | - | 844 W/m² | - |
| 1777049067 | 8.89° C | 41% | 1011.8 hPa | 0 mm | - | 847 W/m² | - |
| 1777048764 | 8.89° C | 39% | 1011.8 hPa | 0 mm | - | 850 W/m² | - |
| 1777048458 | 9.44° C | 40% | 1011.8 hPa | 0 mm | - | 843 W/m² | - |
| 1777048158 | 8.89° C | 41% | 1011.8 hPa | 0 mm | - | 838 W/m² | - |
| 1777047854 | 8.33° C | 46% | 1012.1 hPa | 0 mm | - | 832 W/m² | - |
| 1777047549 | 8.33° C | 41% | 1012.1 hPa | 0 mm | - | 822 W/m² | - |
* Rain latest hour (hover to see other rain measurements)
** Current wind speed in m/s (hover to see current wind gust speed)